User: anonymous
Location: Fort Wayne
(41.1310°N, 85.1290°W)
Time: 04:50:03
(UTC-04:00)
Language:

Cosmos 2219 Rocket - Orbit

View from above orbital plane
View from above orbital plane
View from above satellite
View from above satellite

Ground track
Ground track

The orbit data is extracted from the following two-line orbital elements,

1 22220U 92076B   14237.81826630 -.00000266  00000-0 -10968-3 0  3844
2 22220 071.0007 059.5486 0011983 027.1288 064.3688 14.16320208125440
Epoch (UTC): 25 August 2014 19:38:18
Eccentricity: 0.0011983
inclination: 71.0007°
perigee height: 829 km
apogee height: 846 km
right ascension of ascending node: 59.5486°
argument of perigee: 27.1288°
revolutions per day: 14.16320208
mean anomaly at epoch: 64.3688°
orbit number at epoch: 12544

The dashed part of the orbit path shows where the satellite is in the earth's shadow,  

DLR